SL-8 DEB *, 3045

Orbit data source: Space-Track

SL-8 DEB *, 3045 is space debris in LEO originally from a launch on Fri, 03 Sep 1965 UTC launched from the Tyuratam Missile And Space Complex (TTMTR). Debris objects in space refer to the collection of defunct objects orbiting the Earth. Examples of debris include non-operational satellites, rocket bodies, and fragments generated from explosions, collisions, or faulty payload assembly.

Loading next visibility...
Identifier
3045, 1965-070G
Orbit
LEO
Country
Flag of CISCIS
Related business
Manufacturer
Unknown
Mission
Spacecraft
Bus & Motor
Unknown
Mass
Unknown
Launch date (UTC)
1965-09-03 (60 years ago)
Launch vehicle
Unknown
Launch site
Tyuratam Missile And Space Complex (TTMTR)
Object type
Payload
Rocket body
Debris
Shape & HBR
Unknown
Radar Cross Section
Small (<0.1 m²)

Expand to show TLE details & history
Last TLE update: 2 days ago

TLE from 2 days ago
0 SL-8 DEB *
1 03045U 65070G   25256.40123403  .00000176  00000-0  16585-2 0  9998
2 03045  55.4291 273.4227 0289097 116.7470 359.5677 12.44580584654477
Epoch: 2025-09-13T09:37Z
TLE epoch observation values (Epoch: 2025-09-13T09:37:46.62Z)
Latitude
47.71228°
Longitude
-92.57831°
Altitude
1,265.478 km
Speed
7.332 km/s
True Right ascension
02h 58m 00s
True Declination
47° 33' 09"
Sunlit
Object was in daylight at epoch
Visualization orbit readout
Latitude
Unknown
Longitude
Unknown
Altitude
Unknown
Speed
Unknown
Apparent Right ascension
Unknown
Apparent Declination
Unknown
Sunlit
N/A
Visualization observer readout
Local Sidereal Time
23:00:40
Azimuth
Unknown
Elevation
Unknown
Doppler factor
Unknown
Orbital elements
Apogee altitude
1,714.538 km
Perigee altitude
1,259.771 km
Semi-major axis
7,865.291 km
Eccentricity
0.02891
Inclination
55.4291°
RAAN
273.4227°
Arg. of periapsis
116.747°
True anomaly
359.54177°
Mean anomaly
359.5677°
Eccentric anomaly
359.55483°
Mean motion
3.11151 °/min
Orbital period
115.7 mins
BSTAR
0.0016585
Loading maneuver chart data...
Computing Atmospheric mass density...
Loading historical data...
Loading historical data...
Loading historical data...
Loading historical data...
Loading historical data...
Loading historical data...
Loading historical data...
Other satellites on launch #70 in the year 1965 (1965-09-03 UTC)

Documentation

Showing up to 5 results
|